Hazlehurst, GA

12:37 PM EST on November 15, 2019 (GMT -0500)
Hazlehurst

Weather History for KAZE - September, 2019

Change the Weather History Date:

Sunday, September 22, 2019

  Actual Average Record
Temperature  
Mean Temperature 77 °F -  
Max Temperature 91 °F 88 °F 91 °F (2018)
Min Temperature 64 °F 71 °F 64 °F (2019)
Cooling Degree Days 12    
Growing Degree Days 27 (Base 50)    
Moisture  
Dew Point 58 °F    
Average Humidity 55    
Maximum Humidity 88    
Minimum Humidity 25    
Precipitation  
Precipitation 0.00 in - - ()
Sea Level Pressure  
Sea Level Pressure 30.16 in    
Wind  
Wind Speed 2 mph (ESE)    
Max Wind Speed 9 mph    
Max Gust Speed 16 mph    
Visibility 10 miles    
Events      
Averages and records for this station are not official NWS values.
T = Trace of Precipitation, MM = Missing Value Source: NWS Daily Summary

Daily Weather History Graph

Daily Weather History Graph

Search for Another Location

Airport or City:

Astronomy

Sep. 22, 2019 Rise Set
Actual Time 7:18 AM EDT 7:27 PM EDT
Civil Twilight 6:54 AM EDT 7:51 PM EDT
Nautical Twilight 6:25 AM EDT 8:20 PM EDT
Astronomical Twilight 5:57 AM EDT 8:48 PM EDT
Moon 12:28 AM EDT (9/22) 2:59 PM EDT (9/22)
Length of Visible Light 12h 57m
Length of Day
12h 08m
Last Quarter, 44% of the Moon is Illuminated
Sep 22
Last Quarter
Sep 28
New
Oct 5
First Quarter
Oct 13
Full
Oct 21
Last Quarter

Hourly Weather History & Observations

Time (EDT) Temp. Heat Index Dew Point Humidity Pressure Visibility Wind Dir Wind Speed Gust Speed Precip Events Conditions
12:10 AM 72.1 °F - 61.2 °F 68% 30.22 in 10.0 mi Calm Calm - N/A   Clear
12:30 AM 71.4 °F - 61.2 °F 70% 30.21 in 10.0 mi Calm Calm - N/A   Clear
12:50 AM 70.3 °F - 61.3 °F 73% 30.21 in 10.0 mi Calm Calm - N/A   Clear
1:10 AM 69.8 °F - 61.5 °F 75% 30.20 in 10.0 mi Calm Calm - N/A   Clear
1:30 AM 69.8 °F - 61.5 °F 75% 30.20 in 10.0 mi Calm Calm - N/A   Clear
1:50 AM 69.8 °F - 61.3 °F 74% 30.20 in 10.0 mi Calm Calm - N/A   Clear
2:10 AM 69.1 °F - 61.0 °F 75% 30.20 in 10.0 mi Calm Calm - N/A   Clear
2:30 AM 69.1 °F - 60.8 °F 75% 30.19 in 10.0 mi Calm Calm - N/A   Clear
2:50 AM 70.0 °F - 60.8 °F 73% 30.19 in 10.0 mi SE 3.5 mph - N/A   Clear
3:30 AM 71.1 °F - 61.5 °F 72% 30.18 in 10.0 mi ESE 3.5 mph - N/A   Clear
3:50 AM 70.9 °F - 61.7 °F 73% 30.18 in 10.0 mi ESE 4.6 mph - N/A   Clear
4:10 AM 70.7 °F - 61.7 °F 73% 30.18 in 10.0 mi ESE 4.6 mph - N/A   Clear
4:30 AM 70.5 °F - 61.5 °F 73% 30.17 in 10.0 mi ESE 3.5 mph - N/A   Clear
4:50 AM 69.4 °F - 61.2 °F 75% 30.17 in 10.0 mi Calm Calm - N/A   Clear
5:10 AM 69.8 °F - 61.2 °F 74% 30.17 in 10.0 mi Calm Calm - N/A   Clear
5:30 AM 68.4 °F - 61.2 °F 78% 30.18 in 10.0 mi East 3.5 mph - N/A   Clear
5:50 AM 67.5 °F - 61.0 °F 80% 30.18 in 10.0 mi Calm Calm - N/A   Clear
6:10 AM 67.5 °F - 61.3 °F 81% 30.18 in 10.0 mi Calm Calm - N/A   Clear
6:30 AM 67.1 °F - 61.2 °F 81% 30.19 in 10.0 mi Calm Calm - N/A   Clear
6:50 AM 66.2 °F - 61.0 °F 83% 30.19 in 10.0 mi Calm Calm - N/A   Clear
7:10 AM 65.8 °F - 60.8 °F 84% 30.20 in 10.0 mi Calm Calm - N/A   Clear
7:30 AM 64.4 °F - 60.6 °F 88% 30.20 in 10.0 mi Calm Calm - N/A   Clear
7:50 AM 66.2 °F - 61.7 °F 85% 30.20 in 10.0 mi Calm Calm - N/A   Clear
8:10 AM 66.6 °F - 61.3 °F 83% 30.21 in 10.0 mi Calm Calm - N/A   Clear
8:30 AM 68.0 °F - 61.9 °F 81% 30.21 in 10.0 mi Calm Calm - N/A   Scattered Clouds
8:50 AM 69.1 °F - 62.2 °F 79% 30.21 in 10.0 mi East 3.5 mph - N/A   Scattered Clouds
9:10 AM 71.8 °F - 62.6 °F 73% 30.21 in 10.0 mi East 3.5 mph - N/A   Scattered Clouds
9:30 AM 74.3 °F - 62.1 °F 65% 30.22 in 10.0 mi East 3.5 mph - N/A   Scattered Clouds
9:50 AM 76.1 °F - 62.1 °F 62% 30.22 in 10.0 mi Calm Calm - N/A   Clear
10:10 AM 78.4 °F - 61.7 °F 56% 30.23 in 10.0 mi NE 3.5 mph - N/A   Scattered Clouds
10:30 AM 81.0 °F 81.6 °F 60.3 °F 49% 30.22 in 10.0 mi ENE 4.6 mph - N/A   Scattered Clouds
10:50 AM 81.7 °F 81.5 °F 56.8 °F 43% 30.23 in 10.0 mi East 3.5 mph - N/A   Scattered Clouds
11:10 AM 82.9 °F 82.4 °F 56.7 °F 41% 30.22 in 10.0 mi East 4.6 mph - N/A   Scattered Clouds
11:30 AM 84.0 °F 83.2 °F 56.5 °F 39% 30.22 in 10.0 mi ENE 4.6 mph - N/A   Scattered Clouds
11:50 AM 84.0 °F 83.0 °F 55.8 °F 38% 30.21 in 10.0 mi NE 3.5 mph - N/A   Scattered Clouds
12:10 PM 83.5 °F 82.5 °F 55.2 °F 38% 30.20 in 10.0 mi Calm Calm - N/A   Scattered Clouds
12:30 PM 86.2 °F 84.5 °F 54.7 °F 34% 30.19 in 10.0 mi Calm Calm - N/A   Scattered Clouds
12:50 PM 85.8 °F 84.2 °F 54.7 °F 34% 30.18 in 10.0 mi East 4.6 mph 16.1 mph N/A   Scattered Clouds
1:10 PM 85.8 °F 84.2 °F 54.3 °F 34% 30.17 in 10.0 mi NNE 4.6 mph - N/A   Scattered Clouds
1:30 PM 87.6 °F 85.5 °F 53.2 °F 31% 30.16 in 10.0 mi Calm Calm - N/A   Scattered Clouds
1:50 PM 87.8 °F - 52.7 °F 30% 30.15 in 10.0 mi East 5.8 mph - N/A   Scattered Clouds
2:10 PM 87.6 °F - 52.5 °F 30% 30.14 in 10.0 mi Calm Calm - N/A   Clear
2:30 PM 89.2 °F - 52.3 °F 28% 30.13 in 10.0 mi East 4.6 mph - N/A   Clear
2:50 PM 89.1 °F - 51.1 °F 27% 30.12 in 10.0 mi ENE 3.5 mph - N/A   Clear
3:10 PM 89.1 °F - 50.4 °F 26% 30.11 in 10.0 mi WSW 4.6 mph - N/A   Clear
3:30 PM 89.1 °F - 50.7 °F 27% 30.10 in 10.0 mi Calm Calm - N/A   Clear
3:50 PM 90.0 °F - 50.7 °F 26% 30.10 in 10.0 mi South 3.5 mph - N/A   Clear
4:10 PM 90.7 °F - 50.4 °F 25% 30.09 in 10.0 mi East 5.8 mph - N/A   Clear
4:30 PM 90.3 °F - 50.7 °F 26% 30.09 in 10.0 mi East 3.5 mph - N/A   Clear
4:50 PM 90.5 °F - 51.1 °F 26% 30.09 in 10.0 mi SSE 9.2 mph - N/A   Clear
5:10 PM 90.1 °F - 50.9 °F 26% 30.08 in 10.0 mi ESE 3.5 mph - N/A   Clear
5:35 PM 89.6 °F - 51.1 °F 27% 30.08 in 10.0 mi Calm Calm - N/A   Clear
6:10 PM 89.1 °F - 51.1 °F 27% 30.09 in 10.0 mi SE 4.6 mph - N/A   Clear
6:30 PM 88.5 °F - 51.3 °F 28% 30.09 in 10.0 mi Calm Calm - N/A   Clear
6:50 PM 87.3 °F - 51.8 °F 29% 30.09 in 10.0 mi Calm Calm - N/A   Clear
7:10 PM 85.8 °F 84.0 °F 53.6 °F 33% 30.09 in 10.0 mi Calm Calm - N/A   Clear
7:30 PM 83.5 °F 82.4 °F 54.9 °F 37% 30.10 in 10.0 mi Calm Calm - N/A   Clear
7:50 PM 82.9 °F 82.0 °F 55.2 °F 38% 30.10 in 10.0 mi Calm Calm - N/A   Clear
8:10 PM 81.5 °F 81.1 °F 55.8 °F 41% 30.10 in 10.0 mi Calm Calm - N/A   Clear
8:30 PM 80.8 °F 81.0 °F 57.4 °F 45% 30.11 in 10.0 mi SSE 5.8 mph - N/A   Clear
8:50 PM 80.1 °F 80.7 °F 58.8 °F 48% 30.12 in 10.0 mi SSE 5.8 mph - N/A   Clear
9:10 PM 79.0 °F - 59.4 °F 51% 30.12 in 10.0 mi SE 4.6 mph - N/A   Clear
9:30 PM 78.1 °F - 59.9 °F 53% 30.12 in 10.0 mi Calm Calm - N/A   Clear
9:50 PM 77.5 °F - 60.3 °F 55% 30.13 in 10.0 mi SSE 5.8 mph - N/A   Clear
10:10 PM 76.6 °F - 60.8 °F 58% 30.13 in 10.0 mi SSE 5.8 mph - N/A   Clear
10:30 PM 75.6 °F - 60.8 °F 60% 30.13 in 10.0 mi SSE 3.5 mph - N/A   Clear
10:50 PM 75.2 °F - 61.0 °F 61% 30.14 in 10.0 mi SSE 3.5 mph - N/A   Clear
11:10 PM 74.5 °F - 61.3 °F 63% 30.13 in 10.0 mi SSE 3.5 mph - N/A   Clear
11:30 PM 73.8 °F - 61.5 °F 65% 30.13 in 10.0 mi Calm Calm - N/A   Clear
11:50 PM 73.0 °F - 61.7 °F 67% 30.13 in 10.0 mi Calm Calm - N/A   Clear